Regional Weather Roundup
Issued by NWS

Home | Current Version | Previous Version | Graphics & Text | Print | Product List | Glossary On
Versions: 1 2 3 4 5 6 7 8 9 10 11 12 13 14 15 16 17 18 19 20 21 22 23 24 25 26 27 28 29 30 31 32 33 34 35 36 37 38 39 40 41 42 43 44 45 46 47 48 49 50
000
ASUS43 KLOT 160303
RWRIL

ILLINOIS REGIONAL WEATHER ROUNDUP
NATIONAL WEATHER SERVICE CHICAGO/ROMEOVILLE IL
1000 PM CDT TUE AUG 15 2017

NOTE: "FAIR" INDICATES FEW OR NO CLOUDS BELOW 12,000 FEET WITH NO
SIGNIFICANT WEATHER AND/OR OBSTRUCTIONS TO VISIBILITY.

* THESE STATIONS ARE NOT UNDER NWS QUALITY CONTROL. THEY ALSO MAY NOT
  REPORT WEATHER SUCH AS PRECIPITATION OR FOG.

ILZ001-002-007-009-015-016-024-160400-
NORTHWEST ILLINOIS

CITY           SKY/WX    TMP DP  RH WIND       PRES   REMARKS
MOLINE         MOCLDY    75  66  73 E10       29.94R
STERLING*      MOCLDY    70  67  90 E10       29.96R
SAVANNA*       CLOUDY    68  65  93 CALM      29.96R
$$

ILZ003-004-008-010-011-017-018-160400-
NORTH CENTRAL ILLINOIS

CITY           SKY/WX    TMP DP  RH WIND       PRES   REMARKS
ROCKFORD       CLOUDY    70  61  73 E8        30.00R
FREEPORT*      CLOUDY    64  63  95 E5        30.00R
ROCHELLE*      CLOUDY    66  63  88 E7        29.99R
$$

ILZ005-006-012>014-019>023-160400-
NORTHEAST ILLINOIS

CITY           SKY/WX    TMP DP  RH WIND       PRES   REMARKS
CHICAGO-OHARE  MOCLDY    70  62  76 NE5       29.98R
CHICAGO-MIDWAY CLOUDY    72  64  76 E9        29.98R
AURORA         CLEAR     67  62  84 NE6       29.98R
LANSING*       CLOUDY    70  64  80 NE6       29.98R
JOLIET*        CLOUDY    71  65  83 NE7       29.97R
WAUKEGAN       CLEAR     63  62  97 NE3       29.98R
DUPAGE AIRPORT CLEAR     66  63  90 NE6       29.98R
KANKAKEE*      CLEAR     68  66  94 NE6       29.97R
WHEELING       CLEAR     68  64  87 E3        30.00R
MORRIS*        CLOUDY    68  64  86 E3        29.96R
NORTHERLY ISL    N/A     70  63  78 NE10        N/A
$$

LMZ740>746-160400-
SOUTHERN LAKE MICHIGAN

STATION/POSITION SKY/WX   TEMP    WIND        PRES    VSBY  WAVE
                          AIR SEA DIR/SP/G                  HT/PER
                          (F)     (DEG/KT/KT) (MB)    (MI)  (FT/S)
SOUTHERN BUOY              69 71   30/ 12/ 14 1014.7          2/ 5
WILMETTE HARBOR            71 72   40/ 10/ 14   N/A           3/ 5
HARRISON CRIB              72      40/ 11/ 12   N/A
CALUMET HARBOR             71      30/  7/ 10 1014.7R
BURNS HARBOR               72      50/ 11/ 14 1014.9
MICHIGAN CITY              71      30/ 12/ 13   N/A
MICHIGAN CITY 6N           72 74   60/ 10/ 12   N/A           3/ 4
ST. JOSEPH                 72 74   60/ 12/ 14 1014.9R         3/ 5
$$

ILZ025>027-034>036-040-047-049-050-058-095>099-160400-
WEST-CENTRAL ILLINOIS

CITY           SKY/WX    TMP DP  RH WIND       PRES   REMARKS
QUINCY         CLEAR     76  70  82 E5        29.91R
GALESBURG*     PTCLDY    73  67  83 NE8       29.95S
MACOMB*        CLEAR     71  69  95 E5        29.95R
JACKSONVILLE*  CLEAR     75  70  85 SE5       29.91R
PITTSFIELD*    CLEAR     74  70  89 SE3       29.92R
$$

ILZ028>032-037-038-041>044-048-051>054-059>061-160400-
CENTRAL ILLINOIS

CITY           SKY/WX    TMP DP  RH WIND       PRES   REMARKS
PONTIAC        CLOUDY    72  70  95 CALM      29.96R
BLOOMINGTON    PTCLDY    71  69  93 E7        29.96R
DECATUR        CLEAR     71  69  93 E3        29.93R
PEORIA         CLEAR     78  70  76 NE7       29.93R HX  80
LACON*         CLOUDY    73  68  86 E7        29.94R
LINCOLN*       CLEAR     73  72  96 E3        29.92S
SPRINGFIELD    CLEAR     78  71  79 SE3       29.92R HX  80
TAYLORVILLE    CLEAR     73  71  93 SE5       29.93R
$$

ILZ033-039-045-046-055>057-062-063-160400-
EAST-CENTRAL ILLINOIS

CITY           SKY/WX    TMP DP  RH WIND       PRES   REMARKS
CHAMPAIGN      CLEAR     73  69  87 E5        29.95R
RANTOUL*       PTCLDY    75  71  87 CALM      29.95R
MATTOON        CLEAR     74  72  93 SE3       29.94R
PARIS*         MOCLDY    70  68  95 CALM      29.96R
$$

ILZ079-100>102-160400-
SOUTHWEST ILLINOIS

CITY           SKY/WX    TMP DP  RH WIND       PRES   REMARKS
ALTON          CLEAR     73  72  94 E6        29.91S
BELLEVILLE     CLEAR     77  71  81 S6        29.94R
CAHOKIA*       CLEAR     79  70  74 CALM      29.92R HX  82
SPARTA*        CLEAR     75  72  88 SE3       29.95R
$$

ILZ064>066-069>071-074>076-080>082-084>086-088>090-092>094-160400-
SOUTH-CENTRAL ILLINOIS

CITY           SKY/WX    TMP DP  RH WIND       PRES   REMARKS
CARBONDALE     CLEAR     74  72  93 SE3       29.94R
CAIRO*         PTCLDY    75  73  93 S3        29.95S
EFFINGHAM*     CLEAR     73  71  94 SE3       29.96R
MARION         CLEAR     77  75  94 CALM      29.95R
MT. VERNON     CLEAR     70  69  97 CALM      29.95R
CENTRALIA*     CLEAR     76  72  87 S7        29.94R
SALEM*         CLEAR     78  70  75 S3        29.94R HX  80
METROPOLIS*    CLEAR     77  74  90 SW6       29.96R
$$

ILZ067-068-072-073-078-083-087-091-160400-
SOUTHEAST ILLINOIS

CITY           SKY/WX    TMP DP  RH WIND       PRES   REMARKS
LAWRENCEVILLE  CLEAR     74  71  91 S3        29.95R
FLORA*         CLEAR     74  71  91 S3        29.95R
FAIRFIELD*     CLEAR     73  71  93 CALM      29.94R
HARRISBURG*    CLEAR     73  71  96 CALM      29.96R
ROBINSON*      CLEAR     69  68  96 CALM      29.95R
CARMI*         CLEAR     71  70  98 CALM      29.94R
$$

ABBREVIATIONS USED IN REMARKS
   TC - TEMPERATURE IN CELSIUS
  WCI - WIND CHILL INDEX
   HX - HEAT INDEX
  VSB - VISIBILITY
$$





USA.gov is the U.S. government's official web portal to all federal, state and local government web resources and services.